Tracking 30922 objects as of 2-Jul-2025
HD Live streaming from Space Station
objects crossing your sky now

SL-12 DEB

Track SL-12 DEB now!
10-day predictions


NORAD ID: 41560
Int'l Code: 2008-067J
Perigee: 721.9 km
Apogee: 18,839.6 km
Inclination: 65.4 °
Period: 340.5 minutes
Semi major axis: 16151 km
RCS: Unknown
Launch date: December 25, 2008
Source: Commonwealth of Independent States (former USSR) (CIS)
Launch site: TYURATAM MISSILE AND SPACE COMPLEX (TTMTR)

Note: This is SATELLITE DEBRIS
Your satellite tracking list
THEA
Track 1 satellite(s)




NASA's NSSDC Master Catalog

Two Line Element Set (TLE):
1 41560U 08067J   25179.44602746  .00000347  00000-0  37221-2 0  9995
2 41560  65.3958 303.0125 5608607 256.3085  38.3477  4.22934768142722
Source of the keplerian elements: AFSPC